www.pogodaiklimat.ru

Погода и климат >> Архив погоды >> Норвегия >> Рена аэропорт


ПОГОДА в Рена аэропорту

  • Прогноз погоды в Рена аэропорту
  • Монитор погоды в Рена аэропорту

АРХИВ ПОГОДЫ в Рена аэропорту

Время (UTC), дата Ветер
(напр.,м/с)
 
Видим.   Явления Облачность Т
(С)
Тd
(С)
f
(%)
Тe
(С)
Тes
(С)
Комфортность P
(гПа)
Po
(гПа)
Тmin
(С)
Tmax
(С)
R
(мм)
R24
(мм)
S
(см)
13 18.06 Ю 4-7
{7}
н/о н/о +16.4 +9.0 62 +16 +16 1012.3 982.5
14 18.06 ЮЗ 5-8
{8}
н/о н/о +17.1 +9.2 60 +16 +16 1011.9 982.2
15 18.06 Ю 3-5
{8}
н/о н/о +16.4 +10.9 70 +16 +16 1011.6 981.8
16 18.06 ЮЗ 4-6
{7}
н/о н/о +17.5 +9.8 61 +17 +17 1010.7 981.1
17 18.06 ЮЗ 2-3
{7}
н/о н/о +17.4 +10.7 65 +18 +18 1009.8 980.2
18 18.06 Ю 3-6
{8}
н/о н/о +15.5 +11.8 79 +15 +15 1010.4 980.6 +13.2 +18.2 1
19 18.06 Ю 2-3
{7}
н/о н/о +14.2 +11.8 85 +14 +14 1010.3 980.4 0.2
20 18.06 Ю 3-5
{5}
н/о н/о +13.5 +11.3 87 +12 +12 1010.5 980.5
21 18.06 ЮВ 2-3
{6}
н/о н/о +12.1 +10.3 89 +11 +11 1010.9 980.7 0.1
22 18.06 Ю 1-2
{3}
н/о н/о +12.1 +10.6 91 +12 +12 1011.2 981.0
23 18.06 ЮВ 2-2
{3}
н/о н/о +11.2 +10.2 94 +10 +10 1011.2 980.9
00 19.06 ЮВ 2-3
{7}
н/о н/о +9.8 +9.2 96 +8 +8 1011.3 980.9
01 19.06 В 1-3
{4}
н/о н/о +9.2 +8.7 97 +8 +8 1011.4 980.9
02 19.06 СВ 1-2
{3}
н/о н/о +7.7 +7.0 95 +7 +7 1011.8 981.1
03 19.06 С 1-1
{2}
н/о н/о +7.8 +7.2 96 +7 +7 1012.0 981.3
04 19.06 Ю 1-1
{1}
н/о н/о +9.6 +9.1 97 +9 +9 1012.0 981.5
05 19.06 ЮВ 1-2
{3}
н/о н/о +10.1 +9.5 96 +10 +10 1011.8 981.4
06 19.06 Ю 2-3
{4}
н/о н/о +13.4 +11.0 85 +13 +13 1011.6 981.5 +7.1 +15.5 0.3
07 19.06 Ю 2-3
{5}
н/о н/о +13.9 +10.9 82 +13 +13 1011.5 981.5
08 19.06 Ю 4-6
{6}
н/о н/о +15.3 +11.2 77 +14 +14 1011.2 981.3
09 19.06 Ю 4-5
{5}
н/о н/о +17.3 +8.7 57 +17 +17 1011.0 981.4
10 19.06 Ю 4-5
{5}
н/о н/о +16.9 +8.2 56 +16 +16 1011.1 981.4
11 19.06 Ю 4-5
{6}
н/о н/о +17.1 +7.0 51 +17 +17 1011.1 981.4
12 19.06 Ю 3-4
{6}
н/о н/о +17.9 +8.8 55 +18 +18 1011.0 981.4
13 19.06 Ю 4-6
{6}
н/о н/о +18.8 +7.2 47 +19 +19 1010.8 981.3
14 19.06 ЮВ 5-8
{8}
н/о н/о +18.3 +5.7 44 +18 +18 1010.5 981.0
15 19.06 Ю 3-5
{8}
н/о н/о +20.5 +6.4 40 +22 +22 комфорт 1009.7 980.4
16 19.06 Ю 4-6
{7}
н/о н/о +18.5 +7.5 49 +19 +19 1009.3 979.8 0.1
17 19.06 Ю 3-5
{6}
н/о н/о +17.7 +8.9 56 +18 +18 1009.3 979.7
18 19.06 штиль 0-1
{8}
н/о н/о +15.9 +10.8 72 +16 +16 1009.4 979.7 +12.3 +20.5 0.5
19 19.06 В 1-1
{2}
н/о н/о +14.5 +12.3 87 +15 +15 1009.7 979.8 0.2
20 19.06 штиль 0-1
{3}
н/о н/о +13.2 +11.8 91 +13 +13 1009.8 979.8 0.4
21 19.06 ЮЗ 1-2
{2}
н/о н/о +12.6 +11.5 93 +13 +13 1009.6 979.5
22 19.06 СЗ 2-2
{3}
н/о н/о +12.9 +11.6 92 +12 +12 1008.6 978.6
23 19.06 СЗ 2-3
{3}
н/о н/о +12.6 +11.4 92 +12 +12 1007.9 977.9
00 20.06 СЗ 2-3
{3}
н/о н/о +12.1 +10.9 92 +11 +11 1008.1 978.0 2
01 20.06 С 3-4
{4}
н/о н/о +11.4 +9.9 90 +10 +10 1007.7 977.6 4
02 20.06 С 3-4
{4}
н/о н/о +11.0 +10.1 94 +9 +9 1006.7 976.5 3
03 20.06 СЗ 4-5
{5}
н/о н/о +10.9 +10.0 94 +8 +8 1005.3 975.2 2
04 20.06 С 3-4
{5}
н/о н/о +11.0 +10.1 94 +9 +9 1005.1 975.0 0.6
05 20.06 СЗ 5-6
{6}
н/о н/о +11.1 +10.2 94 +8 +8 1005.3 975.2
06 20.06 СЗ 2-3
{6}
н/о н/о +11.3 +10.4 94 +10 +10 1005.2 975.1 +10.9 +15.9 12
07 20.06 ЮЗ 1-1
{3}
н/о н/о +12.3 +11.1 92 +12 +12 1005.0 975.0
08 20.06 Ю 1-1
{1}
н/о н/о +13.9 +11.9 88 +14 +14 1004.7 974.9 0.2
09 20.06 ЮВ 1-1
{2}
н/о н/о +14.8 +12.5 86 +15 +15 1004.5 974.8
10 20.06 ЮВ 2-3
{3}
н/о н/о +14.3 +12.7 90 +14 +14 1004.7 974.9
11 20.06 ЮЗ 2-3
{3}
н/о н/о +15.0 +13.6 91 +15 +15 1004.4 974.7
12 20.06 ЮВ 2-3
{3}
н/о н/о +16.3 +14.2 87 +16 +16 1004.0 974.5
13 20.06 Ю 3-4
{4}
н/о н/о +17.7 +14.5 82 +18 +18 1003.6 974.2 0.2
14 20.06 Ю 3-4
{5}
н/о н/о +17.6 +14.6 83 +18 +18 1003.4 974.0
15 20.06 Ю 4-6
{6}
н/о н/о +17.5 +13.4 77 +17 +17 1003.2 973.8 0.1
16 20.06 Ю 3-5
{6}
н/о н/о +18.7 +13.9 74 +20 +20 1002.9 973.6 0.1
17 20.06 Ю 5-6
{6}
н/о н/о +17.4 +13.1 76 +17 +17 1002.7 973.3
18 20.06 Ю 5-6
{6}
н/о н/о +16.9 +12.6 76 +16 +16 1002.9 973.5 +11.4 +19.5 0.6
19 20.06 Ю 4-5
{6}
н/о н/о +16.3 +12.5 78 +16 +16 1003.2 973.7 0.1
20 20.06 ЮВ 2-3
{5}
н/о н/о +15.2 +12.9 86 +15 +15 1003.6 974.0 0.1
21 20.06 Ю 1-1
{4}
н/о н/о +14.6 +13.0 90 +15 +15 1004.0 974.3 0.1
22 20.06 В 1-3
{4}
н/о н/о +14.2 +12.6 90 +14 +14 1004.2 974.4
23 20.06 СВ 2-3
{3}
н/о н/о +13.8 +12.3 91 +13 +13 1004.4 974.6
00 21.06 ЮВ 2-3
{6}
н/о н/о +12.7 +11.3 91 +12 +12 1004.9 975.0
01 21.06 Ю 3-5
{5}
н/о н/о +13.1 +11.6 91 +12 +12 1005.0 975.1
02 21.06 СВ 2-3
{5}
н/о н/о +12.1 +11.3 95 +11 +11 1005.2 975.2
03 21.06 В 1-2
{3}
н/о н/о +10.9 +10.2 95 +10 +10 1005.2 975.1
04 21.06 ЮВ 1-2
{3}
н/о н/о +11.0 +10.1 94 +11 +11 1005.3 975.2
05 21.06 ЮЗ 3-5
{5}
н/о н/о +14.0 +9.7 75 +13 +13 1005.4 975.6
06 21.06 ЮЗ 3-4
{6}
н/о н/о +15.5 +9.1 66 +15 +15 1005.5 975.8 +10.4 +17.0 0.3
07 21.06 Ю 4-6
{7}
н/о н/о +16.4 +8.8 61 +16 +16 1005.4 975.8
08 21.06 Ю 5-8
{8}
н/о н/о +17.5 +8.7 56 +17 +17 1005.8 976.3
09 21.06 ЮЗ 5-7
{9}
н/о н/о +17.5 +6.1 47 +17 +17 1006.1 976.6 0.1
10 21.06 Ю 6-9
{9}
н/о н/о +18.1 +5.8 44 +18 +18 1006.1 976.7
11 21.06 Ю 5-7
{9}
н/о н/о +17.3 +6.3 48 +17 +17 1006.5 977.0 0.1
12 21.06 ЮЗ 5-10
{10}
н/о н/о +19.1 +6.4 43 +19 +19 1006.0 976.7
13 21.06 ЮЗ 5-9
{10}
н/о н/о +19.9 +4.8 37 +20 +20 1006.0 976.8
14 21.06 ЮЗ 6-10
{10}
н/о н/о +19.6 +2.2 31 +20 +20 1006.1 976.8
15 21.06 ЮЗ 5-8
{9}
н/о н/о +19.6 +4.2 36 +20 +20 1005.9 976.6
16 21.06 ЮЗ 6-12
{12}
н/о н/о +17.6 +4.3 41 +17 +17 1006.4 976.9
17 21.06 Ю 4-7
{12}
н/о н/о +17.2 +3.8 41 +17 +17 1006.5 977.0
18 21.06 Ю 4-6
{12}
н/о н/о +15.6 +6.0 53 +15 +15 1006.9 977.2 +15.1 +20.3 0.2
19 21.06 Ю 5-8
{10}
н/о н/о +14.5 +5.3 54 +13 +13 1007.3 977.5
20 21.06 ЮВ 3-7
{9}
н/о н/о +13.3 +5.6 60 +12 +12 1008.3 978.3
21 21.06 ЮЗ 2-3
{7}
н/о н/о +12.8 +5.6 62 +12 +12 1008.9 978.9
22 21.06 Ю 2-4
{5}
н/о н/о +11.6 +6.1 69 +11 +11 1009.4 979.2
23 21.06 СЗ 1-1
{3}
н/о н/о +11.1 +5.3 67 +11 +11 1009.8 979.6
00 22.06 В 1-2
{10}
н/о н/о +7.9 +4.7 80 +7 +7 1010.6 980.0
01 22.06 СЗ 1-2
{2}
н/о н/о +5.7 +4.6 93 +4 +4 1011.8 980.9
02 22.06 З 1-1
{2}
н/о н/о +5.0 +4.2 95 +4 +4 1012.9 981.9
03 22.06 ЮВ 1-2
{2}
н/о н/о +4.6 +3.9 95 +3 +3 1013.9 982.8
04 22.06 штиль 0-1
{1}
н/о н/о +8.9 +6.2 83 +8 +8 1013.8 983.2
05 22.06 ЮВ 1-3
{3}
н/о н/о +11.7 +7.3 74 +12 +12 1014.1 983.8
06 22.06 ЮВ 1-3
{8}
н/о н/о +14.0 +4.3 52 +15 +15 1014.4 984.3 +3.3 +15.6
07 22.06 З 2-5
{5}
н/о н/о +14.8 +1.4 40 +15 +15 1014.8 984.8
08 22.06 З 3-5
{5}
н/о н/о +16.4 +0.9 35 +16 +16 1015.0 985.1
09 22.06 З 3-5
{8}
н/о н/о +16.4 +1.4 36 +16 +16 1015.3 985.4
10 22.06 З 4-7
{9}
н/о н/о +17.7 -0.9 28 +18 +18 1015.4 985.7 0.1
11 22.06 С 8-12
{15}
н/о н/о +15.0 +0.2 36 +13 +13 1016.5 986.5
12 22.06 ЮВ 2-3
{15}
н/о н/о +17.2 +3.7 41 +18 +18 1016.5 986.7 0.1
13 22.06 З 7-10
{11}
н/о н/о +18.8 -2.3 24 +18 +18 1016.6 986.9
14 22.06 З 5-9
{12}
н/о н/о +17.8 -3.4 23 +17 +17 1017.0 987.2
15 22.06 З 5-9
{10}
н/о н/о +19.5 -2.2 23 +19 +19 1016.8 987.2
16 22.06 З 7-10
{10}
н/о н/о +18.5 -3.1 23 +18 +18 1017.2 987.5
17 22.06 З 5-7
{10}
н/о н/о +18.0 -1.0 28 +18 +18 1017.7 987.9
18 22.06 З 4-8
{12}
н/о н/о +17.8 +0.5 31 +18 +18 1017.8 988.0 +13.7 +19.7 0.3
19 22.06 СЗ 2-4
{8}
н/о н/о +16.8 +0.1 32 +17 +17 1018.5 988.6
20 22.06 З 3-5
{7}
н/о н/о +14.6 -0.4 36 +14 +14 1019.5 989.3
21 22.06 СВ 1-2
{6}
н/о н/о +9.7 +1.8 58 +10 +10 1020.4 989.7
22 22.06 С 3-4
{4}
н/о н/о +10.6 +1.0 51 +9 +9 1020.9 990.3
23 22.06 С 2-3
{6}
н/о н/о +9.1 +1.2 58 +8 +8 1021.4 990.6
00 23.06 Ю 2-3
{8}
н/о н/о +5.2 +1.0 74 +3 +3 1021.9 990.7 0.1
01 23.06 ЮВ 1-3
{3}
н/о н/о +3.0 +0.4 83 +2 +2 1022.4 990.9
02 23.06 С 1-2
{4}
н/о н/о +4.9 +1.7 80 +4 +4 1022.5 991.2
03 23.06 ЮВ 1-2
{2}
н/о н/о +4.2 +1.9 85 +3 +3 1022.8 991.4
04 23.06 В 1-2
{3}
н/о н/о +7.8 +2.7 70 +7 +7 1022.4 991.4
05 23.06 Ю 2-3
{3}
н/о н/о +10.8 +3.6 61 +10 +10 1022.1 991.5
06 23.06 -3
{4}
н/о н/о +13.4 +4.0 53 1022.2 991.8 +3.0 +17.8 0.1
07 23.06 В 1-3
{3}
н/о н/о +15.0 +2.7 44 +16 +16 1022.2 992.0
08 23.06 ЮВ 3-5
{5}
н/о н/о +17.5 +4.8 43 +18 +18 1022.0 992.0 0.1
09 23.06 Ю 3-6
{6}
н/о н/о +17.2 +4.1 42 +17 +17 1021.9 991.9
10 23.06 Ю 4-7
{7}
н/о н/о +17.4 +3.2 39 +17 +17 1021.9 992.0 0.1
11 23.06 ЮЗ 4-8
{8}
н/о н/о +17.3 +3.1 39 +17 +17 1022.0 992.0 0.1
12 23.06 ЮЗ 4-7
{9}
н/о н/о +18.7 +4.4 39 +19 +19 1022.1 992.3 0.1
13 23.06 З 5-8
{9}
н/о н/о +18.4 +3.0 36 +18 +18 1022.3 992.4
14 23.06 ЮЗ 4-7
{9}
н/о н/о +18.7 +3.1 35 +19 +19 1022.5 992.6 0.1
15 23.06 З 5-8
{10}
н/о н/о +19.6 +2.8 33 +20 +20 1022.4 992.6 0.1
16 23.06 З 5-8
{10}
н/о н/о +19.1 +1.3 30 +19 +19 1022.6 992.8
17 23.06 З 5-8
{9}
н/о н/о +19.3 +0.6 29 +19 +19 1022.5 992.7
18 23.06 СЗ 4-7
{10}
н/о н/о +18.9 +1.7 32 +19 +19 1022.9 993.1 +13.3 +20.3 0.6
19 23.06 СЗ 3-5
{6}
н/о н/о +17.8 +2.1 35 +18 +18 1023.6 993.6
20 23.06 С 2-3
{5}
н/о н/о +15.5 +3.5 45 +16 +16 1024.6 994.4
21 23.06 С 1-2
{4}
н/о н/о +11.0 +4.7 65 +11 +11 1026.1 995.4
22 23.06 С 2-2
{2}
н/о н/о +7.5 +4.6 82 +5 +5 1027.6 996.4
23 23.06 С 2-4
{4}
н/о н/о +5.8 +4.2 89 +3 +3 1028.9 997.5
00 24.06 С 2-3
{6}
н/о н/о +7.2 +3.8 79 +5 +5 1029.6 998.4
01 24.06 ЮВ 2-3
{4}
н/о н/о +4.1 +2.6 90 +1 +1 1030.5 998.9
02 24.06 В 1-2
{2}
н/о н/о +2.6 +1.7 94 +1 +1 1031.1 999.3
03 24.06 В 1-1
{2}
н/о н/о +4.4 +3.7 95 +3 +3 1031.3 999.7
04 24.06 В 1-1
{2}
н/о н/о +8.2 +5.5 83 +7 +7 1031.3 1000.1
05 24.06 С 1-2
{2}
н/о н/о +11.1 +5.0 66 +11 +11 1031.2 1000.3
06 24.06 СЗ 1-3
{4}
н/о н/о +12.9 +5.5 61 +13 +13 1031.1 1000.4 +2.2 +18.9
07 24.06 З 1-3
{4}
н/о н/о +14.6 +5.6 55 +15 +15 1030.8 1000.3
08 24.06 СЗ 1-4
{4}
н/о н/о +16.5 +6.0 50 +17 +17 1030.2 999.9
09 24.06 ЮВ 1-3
{4}
н/о н/о +18.4 +6.5 46 +20 +20 1030.0 999.9
10 24.06 ЮЗ 3-5
{5}
н/о н/о +19.0 +7.0 46 +20 +20 1029.5 999.5
11 24.06 ЮВ 3-5
{6}
н/о н/о +20.3 +5.5 38 +21 +21 комфорт 1028.8 998.9
12 24.06 Ю 4-6
{7}
н/о н/о +20.7 +6.6 40 +22 +22 комфорт 1028.6 998.8
13 24.06 Ю 4-7
{7}
н/о н/о +21.5 +5.6 35 +22 +22 комфорт 1028.2 998.5
14 24.06 Ю 4-8
{8}
н/о н/о +20.7 +3.8 33 +21 +21 комфорт 1028.1 998.3
15 24.06 ЮЗ 4-7
{7}
н/о н/о +20.9 +5.5 37 +22 +22 комфорт 1027.9 998.1
16 24.06 Ю 4-6
{7}
н/о н/о +19.6 +6.2 42 +20 +20 1027.8 997.9
17 24.06 Ю 3-5
{6}
н/о н/о +19.4 +7.1 45 +20 +20 1027.6 997.7
18 24.06 Ю 3-4
{8}
н/о н/о +18.7 +7.3 47 +19 +19 1027.4 997.4 +13.0 +22.1
19 24.06 ЮЗ 1-2
{4}
н/о н/о +17.8 +7.4 51 +19 +19 1027.5 997.4
20 24.06 В 1-2
{2}
н/о н/о +15.8 +9.8 67 +17 +17 1028.1 997.8
21 24.06 ЮВ 2-3
{3}
н/о н/о +14.4 +9.3 71 +14 +14 1028.5 998.0
22 24.06 ЮВ 3-4
{4}
н/о н/о +14.6 +8.4 66 +14 +14 1028.9 998.5 0.1
23 24.06 ЮЗ 2-4
{4}
н/о н/о +15.3 +6.8 57 +15 +15 1029.0 998.6
00 25.06 В 1-2
{4}
н/о н/о +13.3 +9.4 77 +14 +14 1029.1 998.5
01 25.06 штиль 0-1
{2}
н/о н/о +12.0 +10.6 91 +11 +11 1029.1 998.4 0.1
02 25.06 В 1-2
{2}
н/о н/о +11.6 +10.6 94 +11 +11 1029.0 998.2 0.3
03 25.06 В 1-1
{2}
н/о н/о +11.5 +10.3 92 +11 +11 1028.7 997.9
04 25.06 СЗ 1-2
{2}
н/о н/о +11.8 +10.6 92 +12 +12 1028.6 997.9 0.2
05 25.06 С 2-2
{2}
н/о н/о +12.1 +11.1 94 +11 +11 1028.4 997.7 0.3
06 25.06 СЗ 1-2
{2}
н/о н/о +12.8 +11.2 90 +13 +13 1028.2 997.6 +11.1 +18.7 1
07 25.06 С 2-4
{4}
н/о н/о +13.3 +11.3 88 +13 +13 1028.2 997.6 0.1
08 25.06 СЗ 1-2
{2}
н/о н/о +13.6 +11.5 87 +14 +14 1027.6 997.1 0.2
09 25.06 СЗ 1-2
{4}
н/о н/о +13.6 +11.6 88 +14 +14 1027.8 997.3 0.2
10 25.06 С 2-3
{3}
н/о н/о +14.2 +12.2 88 +14 +14 1027.3 996.9 0.2
11 25.06 СЗ 1-2
{3}
н/о н/о +14.2 +12.2 88 +15 +15 1027.1 996.7 0.1
12 25.06 С 1-1
{4}
н/о н/о +14.6 +12.4 87 +15 +15 1026.5 996.1 0.6
13 25.06 ЮВ 3-4
{4}
н/о н/о +15.1 +12.3 83 +14 +14 1025.9 995.6 0.3

 

Местоположение метеостанции Рена аэропорт (Норвегия): широта 61.19 долгота 11.37 высота над уровнем моря 255 м.

В архиве по умолчанию представлена погода в Рена аэропорту за последнюю неделю. Архивные данные за месяц целиком и за предыдущие месяцы, начиная с января 2011 года, Вы можете получить, выбрав интересующий диапазон дат из раскрывающегося списка и нажав кнопку "Ввод!".


*Определитесь, кто Вы:
робот инопланетянин человек

Внимание! Время в таблицах - всемирное. Для получения местного времени необходимо прибавить поправку, которая равна 1 ч.

Смотрите также архив погоды в соседних городах и на ближайших метеорологических станциях:

Погода в Эвенстаде (Норвегия) (30 км)
Погода в Хамар аэропорту (Норвегия) (44 км)
Погода в Хамаре (Норвегия) (46 км)
Погода в Лиллехаммере (Норвегия) (49 км)
Погода в Трюсиль Вегстасьон (Норвегия) (49 км)
Погода в Кисе Па Хедмарк (Норвегия) (56 км)
Погода в Апельсволле (Норвегия) (61 км)
Погода в Фаванге (Норвегия) (70 км)
Погода в Квитфеле (Норвегия) (73 км)
Погода во Флиса (Норвегия) (73 км)

Пояснения к столбцам:

Ветер - указаны скорость ветра в м/с - средняя за 10 мин, порывы в срок и между сроками (в фигурных скобках) и направление, откуда дует ветер: С - северный, СВ - северо-восточный, В - восточный, ЮВ - юго-восточный, Ю - южный, ЮЗ - юго-западный, З - западный, СЗ - северо-западный.
Видимость - горизонтальная дальность видимости в метрах или километрах. При видимости от 1 до 10 км при отсутствии осадков обычно наблюдается дымка, при ухудшении видимости до 1 км и менее - туман. В сухую погоду видимость может ухудшаться дымом, пылью или мглою.
Явления - указаны атмосферные явления, наблюдавшиеся в срок или в последний час перед сроком; фигурными скобками обозначены явления, наблюдавшиеся между сроками (за 1-3 часа до срока); квадратными скобками обозначены град или гололедные отложения с указанием их диаметра в мм.
Облачность - указаны через наклонную черту общая и нижняя облачность в баллах и высота нижней границы облаков в метрах; квадратными скобками обозначены формы облаков: Ci - перистые, Cs - перисто-слоистые, Cc - перисто-кучевые, Ac - высококучевые, As - высокослоистые, Sc - слоисто-кучевые, Ns - слоисто-дождевые, Cu - кучевые, Cb - кучево-дождевые. Подробнее классификацию облаков см. в Атласе облаков (PDF).
T - Температура воздуха - температура, измеренная на высоте 2 м над землей.
Td - Температура точки росы - температура, при понижении до которой содержащийся в воздухе водяной пар достигнет насыщения.
f - Относительная влажность воздуха - влажноcть воздуха, измеренная на высоте 2 м над землей.
Te - Эффективная температура - температура, которую ощущает одетый по сезону человек в тени. Характеристика душности погоды. При расчете учитывается влияние влажности воздуха и скорости ветра на теплоощущения человека.
Tes - Эффективная температура на солнце - температура, которую ощущает человек, с поправкой на солнечный нагрев. Характеристика знойности погоды. Зависит от высоты солнца над горизонтом, облачности и скорости ветра. Ночью, в пасмурную погоду, а также при ветре 12 м/с и более поправка равна нулю.
P - Атмосферное давление - приведенное к уровню моря атмосферное давление.
Po - Атмосферное давление - измеренное на уровне метеостанции атмосферное давление.
Tmin - Минимальная температура - минимум температуры воздуха на высоте 2 м над землей.
Tmax - Максимальная температура - максимум температуры воздуха на высоте 2 м над землей.
R - Количество осадков - Количество выпавших осадков за период времени, мм. При наведении курсора мыши на число - период времени, за который выпало указанное количество осадков.
R24 - Количество осадков - Количество выпавших осадков за 24 часа, мм.
S - Снежный покров - Высота снежного покрова, см. При наведении курсора мыши на число - состояние снежного покрова и степень покрытия местности в баллах.